Regional Weather Roundup
Issued by NWS Goodland, KS

Home | Current Version | Previous Version | Graphics & Text | Print | Product List | Glossary On
Versions: 1 2 3 4 5 6 7 8 9 10 11 12 13 14 15 16 17 18 19 20 21 22 23 24 25 26 27 28 29 30 31 32 33 34 35 36 37 38 39 40 41 42 43 44 45 46 47 48 49 50
000
ASUS43 KGLD 030008
RWRGLD

GOODLAND FORECAST AREA HOURLY WEATHER ROUNDUP
NATIONAL WEATHER SERVICE GOODLAND KS
600 PM MDT TUE JUN 02 2015

...OFFICIAL OBSERVATIONS...

CITY           SKY/WX    TMP DP  RH WIND       PRES   REMARKS
GOODLAND KS    SUNNY     86  57  37 S12       29.81F
HILL CITY KS   MOSUNNY   87  65  47 SE13G23   29.78F
IMPERIAL NEB   SUNNY     84  64  50 SE13      29.77F
MCCOOK NEB     SUNNY     86  64  47 SE15G24   29.76F
AKRON CO       SUNNY     86  34  15 NE3       29.85F
BURLINGTON CO  SUNNY     87  52  29 SE13      29.83F
LIMON CO       SUNNY     82  44  26 SE7       29.90F
$$

...UNOFFICIAL OBSERVATIONS...

CITY           SKY/WX    TMP DP  RH WIND       PRES   REMARKS
COLBY KS       SUNNY     90  63  40 SE13      29.80F
GOVE KS          N/A     88  32  13 MISG        N/A
NORTON KS      SUNNY     88  59  37 SE14G22   29.78
SHARON SPRINGS   N/A     90  62  38 MISG        N/A
KIT CARSON CO    N/A     89  59  36 MISG        N/A
$$


USA.gov is the U.S. government's official web portal to all federal, state and local government web resources and services.